Waarnemingen

Advertentie
Mijn weer
Elsenborn, België (6496): temperatuur & dauwpunt: 09.07.2020 21:00:00 - 15.07.2020 21:00:00 (CEST)Elsenborn, België (6496): windsnelheid & windstoten: 09.07.2020 21:00:00 - 15.07.2020 21:00:00 (CEST)Elsenborn, België (6496): windrichting: 09.07.2020 21:00:00 - 15.07.2020 21:00:00 (CEST)Elsenborn, België (6496): luchtdruk: 09.07.2020 21:00:00 - 15.07.2020 21:00:00 (CEST)Elsenborn, België (6496): zicht: 09.07.2020 21:00:00 - 15.07.2020 21:00:00 (CEST)
Datum & Tijd tt [°C] td [°C] ff [km/u] ff [kn] fx [km/u] fx [kn] dd ppp [hPa] vv [km]
15.07.2020 21:00:00 14,0 9,6 4 2 7 4 N 1016,1 20
15.07.2020 20:00:00 15,4 8,3 4 2 - - N 1015,6 20
15.07.2020 19:00:00 16,0 7,5 7 4 22 12 WNW 1015,2 20
15.07.2020 18:00:00 16,5 8,0 7 4 14 8 WNW 1015,0 20
15.07.2020 17:00:00 15,5 7,6 7 4 - - W 1015,5 20
15.07.2020 16:00:00 15,2 8,1 11 6 22 12 NW 1015,5 19
15.07.2020 15:00:00 15,2 8,1 11 6 22 12 NW 1015,3 20
15.07.2020 14:00:00 14,8 8,2 11 6 - - NNW 1015,2 20
15.07.2020 13:00:00 14,0 7,4 7 4 29 16 NNW 1015,3 20
15.07.2020 12:00:00 13,6 7,8 11 6 29 16 NNW 1015,2 20
15.07.2020 11:00:00 12,9 7,6 11 6 - - NW 1015,2 20
15.07.2020 10:00:00 11,7 7,2 11 6 22 12 NNW 1015,2 20
15.07.2020 09:00:00 11,4 7,8 14 8 22 12 N 1015,0 20
15.07.2020 08:00:00 10,6 8,8 13 7 - - NNW 1014,8 10
15.07.2020 07:00:00 10,3 9,4 4 2 11 6 N 1014,7 7
15.07.2020 06:00:00 10,3 9,6 4 2 11 6 N 1014,6 6
15.07.2020 05:00:00 10,3 9,9 4 2 - - N 1014,3 9
15.07.2020 04:00:00 11,1 10,0 7 4 14 8 N 1014,2 18
15.07.2020 03:00:00 11,6 10,9 4 2 18 10 N 1014,3 8
15.07.2020 02:00:00 11,6 11,5 7 4 - - N 1014,7 4,2
15.07.2020 01:00:00 11,7 11,7 11 6 22 12 NNW 1014,7 3,4
15.07.2020 00:00:00 13,1 12,6 7 4 18 10 WNW 1014,1 8
14.07.2020 23:00:00 12,8 12,1 4 2 - - N 1014,3 18
14.07.2020 22:00:00 12,9 11,2 4 2 7 4 N 1014,2 10
14.07.2020 21:00:00 13,1 10,8 4 2 11 6 N 1014,2 20
14.07.2020 20:00:00 13,2 11,6 4 2 - - N 1014,2 20
14.07.2020 19:00:00 13,8 9,6 11 6 18 10 ZW 1014,5 20
14.07.2020 18:00:00 13,9 10,4 11 6 18 10 WZW 1014,8 20
14.07.2020 17:00:00 13,8 11,1 11 6 - - WNW 1015,2 20
14.07.2020 16:00:00 15,2 10,7 4 2 18 10 N 1015,0 20
14.07.2020 15:00:00 15,7 10,6 11 6 25 14 W 1015,2 20
14.07.2020 14:00:00 17,3 7,3 7 4 - - W 1015,1 20
14.07.2020 13:00:00 18,9 8,2 11 6 22 12 W 1014,7 20
14.07.2020 12:00:00 18,6 8,0 11 6 22 12 WZW 1015,2 19
14.07.2020 11:00:00 17,9 9,7 7 4 - - W 1015,6 20
14.07.2020 10:00:00 18,0 8,6 4 2 7 4 N 1015,6 19
14.07.2020 09:00:00 16,1 11,8 4 2 4 2 N 1016,2 20
14.07.2020 08:00:00 12,3 9,8 0 0 - - N 1017,5 20
14.07.2020 07:00:00 7,9 6,4 0 0 4 2 N 1018,8 20
14.07.2020 06:00:00 5,7 5,3 4 2 7 4 N 1019,3 9
14.07.2020 05:00:00 6,0 5,4 4 2 - - N 1019,7 14
14.07.2020 04:00:00 6,9 6,3 4 2 4 2 N 1019,8 15
14.07.2020 03:00:00 7,1 6,6 4 2 7 4 N 1020,5 17
14.07.2020 02:00:00 8,5 7,7 4 2 - - N 1020,6 20
14.07.2020 01:00:00 8,6 7,7 4 2 4 2 N 1021,0 18
14.07.2020 00:00:00 10,1 8,6 4 2 4 2 N 1020,8 20
13.07.2020 23:00:00 11,6 9,1 4 2 - - N 1020,8 20
13.07.2020 22:00:00 13,7 9,8 4 2 11 6 N 1020,5 20
13.07.2020 21:00:00 18,1 8,1 7 4 18 10 N 1019,5 20
13.07.2020 20:00:00 19,0 8,4 11 6 - - NNW 1019,3 20
13.07.2020 19:00:00 20,3 8,8 7 4 14 8 N 1019,2 20
13.07.2020 18:00:00 20,8 9,2 7 4 14 8 WNW 1019,5 20
13.07.2020 17:00:00 20,9 8,8 4 2 - - N 1019,7 20
13.07.2020 16:00:00 20,6 9,7 11 6 22 12 N 1020,3 20
13.07.2020 15:00:00 20,2 8,4 7 4 22 12 N 1021,1 20
13.07.2020 14:00:00 19,7 7,3 4 2 - - N 1021,7 20
13.07.2020 13:00:00 19,2 6,6 4 2 14 8 N 1022,2 20
13.07.2020 12:00:00 19,5 6,0 5 3 14 8 O 1022,7 10
13.07.2020 11:00:00 19,0 6,6 4 2 - - N 1023,0 20
13.07.2020 10:00:00 18,3 6,6 4 2 11 6 N 1023,3 16
13.07.2020 09:00:00 15,5 8,6 4 2 4 2 N 1024,4 20
13.07.2020 08:00:00 11,5 8,2 4 2 - - N 1025,2 18
13.07.2020 07:00:00 7,3 6,0 4 2 0 0 N 1026,2 20
13.07.2020 06:00:00 4,4 4,0 4 2 4 2 N 1027,0 19
13.07.2020 05:00:00 4,5 4,0 4 2 - - N 1027,2 19
13.07.2020 04:00:00 5,3 4,6 4 2 4 2 N 1027,4 19
13.07.2020 03:00:00 6,0 5,3 4 2 4 2 N 1027,5 20
13.07.2020 02:00:00 7,4 5,8 4 2 - - N 1027,5 20
13.07.2020 01:00:00 8,1 5,9 4 2 4 2 N 1027,5 20
13.07.2020 00:00:00 8,5 6,3 4 2 4 2 N 1027,5 20
12.07.2020 23:00:00 9,5 6,8 4 2 - - N 1027,5 20
12.07.2020 22:00:00 11,8 7,0 4 2 11 6 N 1027,0 20
12.07.2020 21:00:00 15,0 6,5 7 4 22 12 NO 1026,0 20
12.07.2020 20:00:00 16,6 6,5 7 4 - - NO 1025,5 20
12.07.2020 19:00:00 17,4 6,4 11 6 22 12 NO 1025,7 20
12.07.2020 18:00:00 17,1 7,1 7 4 22 12 O 1026,2 20
12.07.2020 17:00:00 16,7 7,1 11 6 - - NO 1026,4 20
12.07.2020 16:00:00 16,3 7,5 14 8 25 14 NO 1026,7 20
12.07.2020 15:00:00 16,6 7,3 11 6 18 10 NNO 1026,9 20
12.07.2020 14:00:00 16,1 7,6 7 4 - - ONO 1027,2 20
12.07.2020 13:00:00 15,7 8,1 11 6 14 8 N 1027,5 20
12.07.2020 12:00:00 14,4 7,3 7 4 22 12 O 1028,0 20
12.07.2020 11:00:00 14,6 7,7 11 6 - - O 1027,7 20
12.07.2020 10:00:00 13,2 7,4 11 6 22 12 NO 1028,2 20
12.07.2020 09:00:00 12,4 9,3 7 4 14 8 NO 1028,0 19
12.07.2020 08:00:00 10,4 8,7 4 2 - - N 1028,2 14
12.07.2020 07:00:00 5,1 4,6 4 2 7 4 N 1029,0 15
12.07.2020 06:00:00 2,9 2,5 4 2 4 2 N 1029,5 16
12.07.2020 05:00:00 3,7 3,5 4 2 - - N 1029,0 12
12.07.2020 04:00:00 4,4 4,2 4 2 7 4 N 1028,7 8
12.07.2020 03:00:00 4,6 4,2 4 2 7 4 N 1028,9 15
12.07.2020 02:00:00 5,8 5,3 4 2 - - N 1028,7 17
12.07.2020 01:00:00 7,0 6,5 4 2 7 4 N 1028,5 12
12.07.2020 00:00:00 7,5 6,6 4 2 7 4 N 1028,2 20
11.07.2020 23:00:00 8,7 7,2 4 2 - - N 1027,9 20
11.07.2020 22:00:00 10,4 7,3 7 4 11 6 N 1027,0 20
11.07.2020 21:00:00 13,3 7,1 7 4 18 10 N 1026,2 20
11.07.2020 20:00:00 14,0 8,2 4 2 - - N 1025,7 20
11.07.2020 19:00:00 14,1 8,1 11 6 18 10 NNW 1025,5 20
11.07.2020 18:00:00 15,0 7,2 11 6 22 12 NNW 1025,0 20
11.07.2020 17:00:00 15,9 7,2 7 4 - - NNW 1024,5 20
11.07.2020 16:00:00 16,2 6,6 11 6 32 18 WNW 1024,5 20
11.07.2020 15:00:00 15,7 7,1 14 8 32 18 NNW 1024,5 20
11.07.2020 14:00:00 15,7 8,0 13 7 - - NW 1024,5 10
11.07.2020 13:00:00 13,8 5,6 7 4 22 12 NW 1024,9 20
11.07.2020 12:00:00 12,7 6,4 7 4 22 12 WNW 1025,0 20
11.07.2020 11:00:00 12,7 5,9 7 4 - - NW 1024,5 20
11.07.2020 10:00:00 12,3 6,6 5 3 11 6 N 1024,2 1,8
11.07.2020 09:00:00 10,1 9,2 4 2 4 2 N 1024,2 10
11.07.2020 08:00:00 8,3 8,3 4 2 - - N 1024,4 0,7
11.07.2020 07:00:00 6,4 6,4 4 2 4 2 N 1024,2 1,0
11.07.2020 06:00:00 3,7 3,5 2 1 4 2 - 1024,4 0,4
11.07.2020 05:00:00 4,9 4,9 2 1 - - - 1023,7 2,2
11.07.2020 04:00:00 6,2 6,1 4 2 4 2 N 1023,2 7
11.07.2020 03:00:00 8,3 8,1 4 2 4 2 N 1022,7 10
11.07.2020 02:00:00 8,0 7,7 0 0 - - N 1022,6 12
11.07.2020 01:00:00 9,0 8,4 4 2 18 10 N 1021,7 15
11.07.2020 00:00:00 9,5 8,9 4 2 4 2 N 1021,1 20
10.07.2020 23:00:00 9,4 8,7 4 2 - - N 1020,2 20
10.07.2020 22:00:00 11,6 9,7 4 2 14 8 N 1019,2 20
10.07.2020 21:00:00 12,3 9,7 7 4 25 14 N 1018,7 20
10.07.2020 20:00:00 13,0 9,6 4 2 - - N 1018,1 20
10.07.2020 19:00:00 13,7 9,5 14 8 25 14 NNW 1017,3 20
10.07.2020 18:00:00 14,4 10,7 14 8 32 18 NNW 1016,7 20
10.07.2020 17:00:00 13,8 10,7 21 11 - - NNW 1016,7 10
10.07.2020 16:00:00 15,6 10,6 18 10 29 16 NW 1015,3 20
10.07.2020 15:00:00 14,3 11,1 13 7 29 16 WNW 1015,2 10
10.07.2020 14:00:00 15,6 12,9 11 6 - - W 1014,0 20
10.07.2020 13:00:00 13,5 12,1 18 10 36 19 WNW 1013,8 19
10.07.2020 12:00:00 14,1 12,6 16 9 32 18 W 1012,7 10
10.07.2020 11:00:00 13,9 13,3 18 10 - - W 1011,8 15
10.07.2020 10:00:00 13,5 13,1 14 8 32 18 W 1011,6 4,9
10.07.2020 09:00:00 13,3 12,7 14 8 32 18 W 1011,0 18
10.07.2020 08:00:00 13,4 12,3 14 8 - - W 1010,5 20
10.07.2020 07:00:00 14,1 12,5 18 10 29 16 WZW 1010,1 20
10.07.2020 06:00:00 14,1 12,8 11 6 22 12 ZW 1010,2 20
10.07.2020 05:00:00 14,6 13,3 7 4 - - W 1010,6 20
10.07.2020 04:00:00 14,0 13,4 7 4 14 8 W 1010,8 15
10.07.2020 03:00:00 12,1 11,9 4 2 4 2 N 1011,7 19
10.07.2020 02:00:00 12,7 12,4 4 2 - - N 1012,0 20
10.07.2020 01:00:00 13,1 12,6 4 2 7 4 N 1012,2 20
10.07.2020 00:00:00 13,3 12,4 4 2 7 4 N 1012,3 20
09.07.2020 23:00:00 14,1 12,7 4 2 - - N 1012,6 20
09.07.2020 22:00:00 16,2 13,1 4 2 11 6 N 1012,2 20
09.07.2020 21:00:00 19,6 12,7 7 4 22 12 ZW 1011,8 20

tt = temperatuur
td = dauwpunt
ff = windsnelheid
fx = windstoten
dd = windrichting
ppp = luchtdruk
vv = zicht

Weerstations in de omgeving